Jesup, GA

11:54 AM EDT on July 20, 2017 (GMT -0400)
Jesup-Wayne County

Weather History for KJES - January, 2014

Change the Weather History Date:

Sunday, January 5, 2014

  Actual Average (KLHW) Record (KLHW)
Temperature  
Mean Temperature 50 °F -  
Max Temperature 59 °F 61 °F 78 °F (2004)
Min Temperature 42 °F 41 °F 20 °F (1981)
Degree Days  
Heating Degree Days 14    
Moisture  
Dew Point 47 °F    
Average Humidity 94    
Maximum Humidity 100    
Minimum Humidity 82    
Precipitation  
Precipitation 0.00 in - - ()
Sea Level Pressure  
Sea Level Pressure 30.05 in    
Wind  
Wind Speed 2 mph (NE)    
Max Wind Speed 6 mph    
Max Gust Speed -    
Visibility 8 miles    
Events Rain    
Averages and records for this station are not official NWS values.
T = Trace of Precipitation, MM = Missing Value Source: NWS Daily Summary

Daily Weather History Graph

Daily Weather History Graph

Search for Another Location

Airport or City:

Trip Planner

Search our weather history database for the weather conditions in past years. The results will help you decide how hot, cold, wet, or windy it might be!

Date:

Astronomy

Jan. 05, 2014 Rise Set
Actual Time 7:27 AM EST 5:38 PM EST
Civil Twilight 7:01 AM EST 6:05 PM EST
Nautical Twilight 6:30 AM EST 6:35 PM EST
Astronomical Twilight 6:01 AM EST 7:04 PM EST
Moon 10:27 AM EST (1/5) 10:43 PM EST (1/5)
Length of Visible Light 11h 04m
Length of Day
10h 10m
Waxing Crescent, 24% of the Moon is Illuminated
Jan 5
Waxing Crescent
Jan 7
First Quarter
Jan 15
Full
Jan 24
Last Quarter
Jan 30
New

Hourly Weather History & Observations

Time (EST) Temp. Windchill Dew Point Humidity Pressure Visibility Wind Dir Wind Speed Gust Speed Precip Events Conditions
12:15 AM 42.8 °F 40.1 °F 39.2 °F 87% 30.17 in 10.0 mi NE 4.6 mph - N/A   Scattered Clouds
12:35 AM 42.8 °F 41.1 °F 39.2 °F 87% 30.16 in 10.0 mi NE 3.5 mph - N/A   Scattered Clouds
12:55 AM 42.8 °F 40.1 °F 39.2 °F 87% 30.16 in 10.0 mi NE 4.6 mph - N/A   Mostly Cloudy
1:15 AM 42.8 °F 41.1 °F 39.2 °F 87% 30.15 in 10.0 mi NE 3.5 mph - N/A   Mostly Cloudy
1:35 AM 42.8 °F 41.1 °F 41.0 °F 93% 30.15 in 10.0 mi NE 3.5 mph - N/A   Overcast
1:55 AM 42.8 °F 41.1 °F 41.0 °F 93% 30.14 in 10.0 mi NE 3.5 mph - N/A   Overcast
2:15 AM 42.8 °F - 41.0 °F 93% 30.14 in 10.0 mi Calm Calm - N/A   Mostly Cloudy
2:35 AM 42.8 °F 41.1 °F 41.0 °F 93% 30.13 in 10.0 mi NE 3.5 mph - N/A   Mostly Cloudy
2:55 AM 42.8 °F 41.1 °F 41.0 °F 93% 30.13 in 10.0 mi NE 3.5 mph - N/A   Overcast
3:15 AM 42.8 °F 40.1 °F 41.0 °F 93% 30.13 in 10.0 mi NNE 4.6 mph - N/A   Overcast
3:35 AM 42.8 °F 39.3 °F 41.0 °F 93% 30.12 in 10.0 mi NNE 5.8 mph - N/A   Overcast
3:55 AM 42.8 °F - 41.0 °F 93% 30.13 in 10.0 mi Calm Calm - N/A   Overcast
4:15 AM 42.8 °F - 41.0 °F 93% 30.12 in 10.0 mi Calm Calm - N/A Rain Light Rain
4:35 AM 42.8 °F - 41.0 °F 93% 30.11 in 10.0 mi Calm Calm - N/A   Overcast
4:55 AM 42.8 °F 40.1 °F 41.0 °F 93% 30.11 in 1.2 mi NNW 4.6 mph - N/A Rain Heavy Rain
5:15 AM 42.8 °F - 42.8 °F 100% 30.11 in 10.0 mi Calm Calm - N/A Rain Light Rain
5:35 AM 42.8 °F 41.1 °F 42.8 °F 100% 30.11 in 10.0 mi NE 3.5 mph - N/A   Overcast
5:55 AM 42.8 °F - 42.8 °F 100% 30.10 in 10.0 mi Calm Calm - N/A   Overcast
6:15 AM 42.8 °F - 42.8 °F 100% 30.09 in 10.0 mi Calm Calm - N/A   Overcast
6:35 AM 42.8 °F 41.1 °F 42.8 °F 100% 30.10 in 10.0 mi NNE 3.5 mph - N/A   Overcast
6:55 AM 42.8 °F 41.1 °F 42.8 °F 100% 30.11 in 10.0 mi NW 3.5 mph - N/A   Overcast
7:15 AM 42.8 °F - 42.8 °F 100% 30.11 in 10.0 mi Calm Calm - N/A   Overcast
7:35 AM 42.8 °F - 42.8 °F 100% 30.11 in 7.0 mi Calm Calm - N/A   Overcast
7:55 AM 42.8 °F 40.1 °F 42.8 °F 100% 30.10 in 7.0 mi East 4.6 mph - N/A   Overcast
8:15 AM 42.8 °F - 42.8 °F 100% 30.11 in 7.0 mi Calm Calm - N/A   Overcast
8:35 AM 42.8 °F - 42.8 °F 100% 30.11 in 7.0 mi Calm Calm - N/A   Overcast
8:55 AM 44.6 °F 43.1 °F 44.6 °F 100% 30.12 in 10.0 mi NNE 3.5 mph - N/A   Overcast
9:15 AM 44.6 °F - 44.6 °F 100% 30.12 in 10.0 mi Calm Calm - N/A   Overcast
9:35 AM 44.6 °F - 44.6 °F 100% 30.13 in 10.0 mi Calm Calm - N/A   Overcast
9:55 AM 46.4 °F - 44.6 °F 93% 30.13 in 10.0 mi Calm Calm - N/A   Overcast
10:15 AM 46.4 °F - 44.6 °F 93% 30.13 in 10.0 mi Calm Calm - N/A   Overcast
10:35 AM 46.4 °F - 44.6 °F 93% 30.12 in 10.0 mi Calm Calm - N/A   Overcast
10:55 AM 48.2 °F - 46.4 °F 93% 30.11 in 10.0 mi NNW 3.5 mph - N/A   Overcast
11:15 AM 50.0 °F - 46.4 °F 87% 30.10 in 10.0 mi Calm Calm - N/A   Overcast
11:35 AM 50.0 °F - 46.4 °F 87% 30.09 in 10.0 mi Calm Calm - N/A   Overcast
11:55 AM 50.0 °F - 46.4 °F 87% 30.08 in 10.0 mi Calm Calm - N/A   Overcast
12:15 PM 51.8 °F - 48.2 °F 88% 30.06 in 10.0 mi Calm Calm - N/A   Overcast
12:35 PM 55.4 °F - 50.0 °F 82% 30.05 in 10.0 mi Calm Calm - N/A   Overcast
12:55 PM 55.4 °F - 50.0 °F 82% 30.04 in 10.0 mi Calm Calm - N/A   Overcast
1:15 PM 55.4 °F - 51.8 °F 88% 30.03 in 10.0 mi Calm Calm - N/A   Overcast
1:35 PM 55.4 °F - 51.8 °F 88% 30.02 in 10.0 mi Calm Calm - N/A   Overcast
1:55 PM 55.4 °F - 51.8 °F 88% 30.01 in 10.0 mi Calm Calm - N/A   Overcast
2:15 PM 57.2 °F - 53.6 °F 88% 30.01 in 10.0 mi Calm Calm - N/A   Overcast
2:35 PM 59.0 °F - 53.6 °F 82% 30.01 in 10.0 mi Calm Calm - N/A   Overcast
2:55 PM 59.0 °F - 53.6 °F 82% 30.01 in 10.0 mi Calm Calm - N/A   Overcast
3:15 PM 59.0 °F - 53.6 °F 82% 30.00 in 10.0 mi Calm Calm - N/A   Overcast
3:35 PM 59.0 °F - 55.4 °F 88% 30.00 in 10.0 mi Calm Calm - N/A   Overcast
3:55 PM 59.0 °F - 55.4 °F 88% 30.01 in 10.0 mi Calm Calm - N/A   Overcast
4:15 PM 59.0 °F - 55.4 °F 88% 30.01 in 10.0 mi Calm Calm - N/A   Overcast
4:35 PM 59.0 °F - 55.4 °F 88% 30.00 in 10.0 mi Calm Calm - N/A   Overcast
4:55 PM 59.0 °F - 55.4 °F 88% 30.00 in 10.0 mi Calm Calm - N/A   Overcast
5:15 PM 59.0 °F - 55.4 °F 88% 29.99 in 10.0 mi Calm Calm - N/A   Overcast
5:35 PM 57.2 °F - 55.4 °F 94% 29.98 in 10.0 mi Calm Calm - N/A   Overcast
5:55 PM 55.4 °F - 55.4 °F 100% 29.98 in 10.0 mi Calm Calm - N/A   Scattered Clouds
6:15 PM 53.6 °F - 53.6 °F 100% 29.97 in 7.0 mi Calm Calm - N/A   Clear
6:35 PM 53.6 °F - 53.6 °F 100% 29.98 in 10.0 mi Calm Calm - N/A   Clear
6:55 PM 51.8 °F - 51.8 °F 100% 29.98 in 4.0 mi Calm Calm - N/A   Clear
7:15 PM 51.8 °F - 51.8 °F 100% 29.97 in 3.0 mi Calm Calm - N/A   Clear
7:35 PM 50.0 °F - 50.0 °F 100% 29.96 in 4.0 mi Calm Calm - N/A   Clear
7:55 PM 51.8 °F - 51.8 °F 100% 29.96 in 4.0 mi Calm Calm - N/A   Clear
8:15 PM 50.0 °F - 50.0 °F 100% 29.97 in 5.0 mi Calm Calm - N/A   Clear
8:35 PM 50.0 °F - 50.0 °F 100% 29.96 in 5.0 mi Calm Calm - N/A   Clear
8:55 PM 50.0 °F - 50.0 °F 100% 29.96 in 3.0 mi Calm Calm - N/A   Clear
9:15 PM 48.2 °F - 48.2 °F 100% 29.95 in 3.0 mi Calm Calm - N/A   Clear
9:35 PM 50.0 °F - 50.0 °F 100% 29.95 in 4.0 mi Calm Calm - N/A   Clear
9:55 PM 50.0 °F - 50.0 °F 100% 29.94 in 5.0 mi Calm Calm - N/A   Scattered Clouds
10:15 PM 48.2 °F - 48.2 °F 100% 29.93 in 3.0 mi Calm Calm - N/A   Clear
10:35 PM 51.8 °F - 51.8 °F 100% 29.93 in 7.0 mi Calm Calm - N/A   Clear
10:55 PM 51.8 °F - 51.8 °F 100% 29.91 in 5.0 mi Calm Calm - N/A   Clear
11:15 PM 53.6 °F - 53.6 °F 100% 29.91 in 5.0 mi SSW 4.6 mph - N/A   Clear
11:35 PM 53.6 °F - 53.6 °F 100% 29.90 in 5.0 mi South 3.5 mph - N/A   Mostly Cloudy
11:55 PM 53.6 °F - 53.6 °F 100% 29.90 in 5.0 mi SSW 4.6 mph - N/A   Overcast